| time (UTC) | temp F | wind direction | speed MPH | gust MPH | rain 1hr in | rain 24hr in | rain mn in | humidity % | barometer mb |
| 20260507111017 | 56 | 358 | 2.0 | 2.0 | 0.00 | 0.05 | 0.05 | 73 | 1012.6 |
| 20260507110513 | 56 | 346 | 1.0 | 1.0 | 0.00 | 0.05 | 0.05 | 74 | 1012.3 |
| 20260507110010 | 56 | 254 | 0.0 | 1.0 | 0.00 | 0.05 | 0.05 | 74 | 1012.6 |
| 20260507105507 | 56 | 48 | 3.0 | 3.0 | 0.00 | 0.05 | 0.05 | 74 | 1012.5 |
| 20260507105003 | 56 | 243 | 1.0 | 1.0 | 0.00 | 0.05 | 0.05 | 73 | 1012.4 |
| 20260507104500 | 56 | 272 | 1.0 | 1.0 | 0.00 | 0.05 | 0.05 | 74 | 1012.5 |
| 20260507103956 | 55 | 241 | 1.0 | 2.0 | 0.00 | 0.05 | 0.05 | 76 | 1012.2 |
| 20260507103453 | 56 | 265 | 0.0 | 1.0 | 0.00 | 0.05 | 0.05 | 78 | 1012.4 |
| 20260507102949 | 56 | 251 | 0.0 | 1.0 | 0.00 | 0.05 | 0.05 | 79 | 1012.3 |
| 20260507102446 | 55 | 256 | 1.0 | 1.0 | 0.00 | 0.05 | 0.05 | 79 | 1012.2 |
| 20260507101942 | 55 | 345 | 2.0 | 3.0 | 0.00 | 0.05 | 0.05 | 79 | 1012.1 |
| 20260507101437 | 55 | 296 | 1.0 | 2.0 | 0.00 | 0.05 | 0.05 | 80 | 1012.1 |
| 20260507100934 | 55 | 307 | 1.0 | 1.0 | 0.00 | 0.05 | 0.05 | 81 | 1012.1 |
| 20260507100432 | 55 | 290 | 0.0 | 1.0 | 0.00 | 0.05 | 0.05 | 82 | 1012.2 |
| 20260507095930 | 55 | 17 | 2.0 | 3.0 | 0.00 | 0.05 | 0.05 | 82 | 1012.0 |
| 20260507095427 | 55 | 3 | 1.0 | 1.0 | 0.00 | 0.05 | 0.05 | 82 | 1012.0 |
| 20260507094924 | 55 | 343 | 1.0 | 2.0 | 0.00 | 0.05 | 0.05 | 82 | 1011.9 |
| 20260507094420 | 55 | 328 | 2.0 | 3.0 | 0.00 | 0.05 | 0.05 | 82 | 1012.0 |
| 20260507093917 | 55 | 346 | 4.0 | 4.0 | 0.00 | 0.05 | 0.05 | 82 | 1011.9 |
| 20260507093415 | 55 | 53 | 3.0 | 3.0 | 0.00 | 0.05 | 0.05 | 82 | 1012.0 |
| 20260507092913 | 55 | 6 | 2.0 | 2.0 | 0.00 | 0.05 | 0.05 | 83 | 1012.1 |
| 20260507092409 | 55 | 331 | 2.0 | 3.0 | 0.00 | 0.05 | 0.05 | 83 | 1011.6 |
| 20260507091906 | 55 | 358 | 4.0 | 4.0 | 0.00 | 0.05 | 0.05 | 83 | 1011.7 |
| 20260507091402 | 56 | 328 | 3.0 | 4.0 | 0.00 | 0.05 | 0.05 | 83 | 1011.8 |
| 20260507090858 | 56 | 38 | 5.0 | 6.0 | 0.00 | 0.05 | 0.05 | 83 | 1012.1 |
| 20260507090354 | 56 | 257 | 1.0 | 1.0 | 0.00 | 0.05 | 0.05 | 84 | 1012.0 |
| 20260507085852 | 56 | 255 | 1.0 | 1.0 | 0.00 | 0.05 | 0.05 | 83 | 1012.0 |
| 20260507085348 | 56 | 295 | 1.0 | 2.0 | 0.00 | 0.05 | 0.05 | 84 | 1011.9 |
| 20260507084846 | 56 | 334 | 2.0 | 2.0 | 0.00 | 0.05 | 0.05 | 83 | 1011.6 |
| 20260507084342 | 56 | 321 | 1.0 | 1.0 | 0.00 | 0.05 | 0.05 | 83 | 1011.6 |
| 20260507083840 | 56 | 28 | 2.0 | 2.0 | 0.00 | 0.05 | 0.05 | 83 | 1011.8 |
| 20260507083336 | 56 | 305 | 0.0 | 0.0 | 0.00 | 0.05 | 0.05 | 83 | 1011.9 |
| 20260507082832 | 56 | 339 | 2.0 | 2.0 | 0.00 | 0.05 | 0.05 | 83 | 1011.7 |
| 20260507082328 | 56 | 287 | 1.0 | 2.0 | 0.00 | 0.05 | 0.05 | 83 | 1011.7 |
| 20260507081825 | 56 | 272 | 1.0 | 1.0 | 0.00 | 0.05 | 0.05 | 83 | 1011.5 |
| 20260507081321 | 56 | 257 | 0.0 | 1.0 | 0.00 | 0.05 | 0.05 | 83 | 1011.4 |
| 20260507080818 | 56 | 278 | 1.0 | 2.0 | 0.00 | 0.05 | 0.05 | 83 | 1011.2 |
| 20260507080314 | 56 | 256 | 1.0 | 1.0 | 0.00 | 0.05 | 0.05 | 83 | 1011.2 |
| 20260507075809 | 56 | 270 | 1.0 | 1.0 | 0.00 | 0.05 | 0.05 | 83 | 1011.0 |
| 20260507075307 | 56 | 292 | 2.0 | 2.0 | 0.00 | 0.05 | 0.05 | 84 | 1011.1 |
| 20260507074802 | 57 | 288 | 2.0 | 2.0 | 0.00 | 0.05 | 0.05 | 85 | 1011.1 |
| 20260507074301 | 57 | 265 | 0.0 | 1.0 | 0.00 | 0.05 | 0.05 | 85 | 1011.1 |
| 20260507073757 | 57 | 300 | 0.0 | 1.0 | 0.00 | 0.05 | 0.05 | 86 | 1010.8 |
| 20260507073253 | 57 | 318 | 1.0 | 2.0 | 0.00 | 0.05 | 0.05 | 86 | 1010.7 |
| 20260507072751 | 57 | 19 | 2.0 | 2.0 | 0.00 | 0.05 | 0.05 | 87 | 1010.8 |
| 20260507072248 | 57 | 251 | 0.0 | 1.0 | 0.00 | 0.05 | 0.05 | 87 | 1010.8 |
| 20260507071746 | 57 | 269 | 0.0 | 0.0 | 0.00 | 0.05 | 0.05 | 88 | 1011.0 |
| 20260507071242 | 57 | 239 | 0.0 | 1.0 | 0.00 | 0.05 | 0.05 | 88 | 1010.8 |
| 20260507070739 | 57 | 245 | 0.0 | 0.0 | 0.00 | 0.05 | 0.05 | 88 | 1011.0 |
| 20260507070236 | 57 | 252 | 0.0 | 1.0 | 0.00 | 0.05 | 0.05 | 89 | 1010.9 |
| 20260507065732 | 57 | 359 | 2.0 | 4.0 | 0.00 | 0.05 | 0.05 | 89 | 1010.6 |
| 20260507065229 | 57 | 314 | 2.0 | 3.0 | 0.00 | 0.05 | 0.05 | 89 | 1010.6 |
| 20260507064727 | 57 | 288 | 1.0 | 2.0 | 0.00 | 0.05 | 0.05 | 89 | 1010.9 |
| 20260507064226 | 57 | 252 | 0.0 | 0.0 | 0.00 | 0.05 | 0.05 | 89 | 1010.9 |
| 20260507063722 | 57 | 256 | 0.0 | 0.0 | 0.00 | 0.05 | 0.05 | 89 | 1011.0 |
| 20260507063219 | 57 | 300 | 1.0 | 1.0 | 0.00 | 0.05 | 0.05 | 89 | 1010.9 |
| 20260507062716 | 57 | 271 | 0.0 | 1.0 | 0.00 | 0.05 | 0.05 | 89 | 1011.1 |
| 20260507062214 | 57 | 291 | 1.0 | 1.0 | 0.00 | 0.05 | 0.05 | 89 | 1010.7 |
| 20260507061711 | 57 | 38 | 1.0 | 1.0 | 0.00 | 0.05 | 0.05 | 89 | 1010.5 |
| 20260507061209 | 57 | 313 | 1.0 | 1.0 | 0.00 | 0.05 | 0.05 | 89 | 1010.6 |
| 20260507060707 | 58 | 344 | 3.0 | 4.0 | 0.05 | 0.05 | 0.05 | 89 | 1010.5 |
| 20260507060203 | 58 | 265 | 1.0 | 1.0 | 0.05 | 0.05 | 0.05 | 89 | 1010.9 |
| 20260507055659 | 58 | 293 | 1.0 | 1.0 | 0.00 | 0.04 | 0.04 | 89 | 1010.8 |
| 20260507055155 | 58 | 321 | 2.0 | 2.0 | 0.00 | 0.04 | 0.04 | 88 | 1010.7 |
| 20260507054651 | 58 | 266 | 1.0 | 2.0 | 0.00 | 0.04 | 0.04 | 88 | 1010.9 |
| 20260507054148 | 58 | 3 | 4.0 | 7.0 | 0.00 | 0.04 | 0.04 | 87 | 1010.8 |
| 20260507053646 | 58 | 248 | 1.0 | 2.0 | 0.00 | 0.04 | 0.04 | 87 | 1011.0 |
| 20260507053144 | 58 | 251 | 1.0 | 2.0 | 0.00 | 0.04 | 0.04 | 87 | 1011.0 |
| 20260507052642 | 59 | 250 | 0.0 | 1.0 | 0.00 | 0.04 | 0.04 | 87 | 1010.8 |
| 20260507052138 | 59 | 264 | 1.0 | 2.0 | 0.00 | 0.04 | 0.04 | 86 | 1010.5 |
| 20260507051636 | 59 | 300 | 0.0 | 1.0 | 0.00 | 0.04 | 0.04 | 86 | 1010.3 |
| 20260507051132 | 59 | 255 | 0.0 | 1.0 | 0.00 | 0.04 | 0.04 | 86 | 1010.7 |
| 20260507050629 | 59 | 270 | 0.0 | 1.0 | 0.07 | 0.04 | 0.04 | 86 | 1011.0 |
| 20260507050126 | 59 | 257 | 0.0 | 1.0 | 0.07 | 0.04 | 0.04 | 85 | 1011.3 |
| 20260507045623 | 59 | 252 | 1.0 | 1.0 | 0.00 | 0.03 | 0.03 | 84 | 1011.3 |
| 20260507045120 | 60 | 255 | 1.0 | 1.0 | 0.00 | 0.03 | 0.03 | 82 | 1011.1 |
| 20260507044616 | 60 | 263 | 1.0 | 1.0 | 0.00 | 0.03 | 0.03 | 82 | 1011.0 |
| 20260507044113 | 60 | 262 | 1.0 | 2.0 | 0.12 | 0.03 | 0.03 | 81 | 1010.8 |
| 20260507043609 | 61 | 257 | 0.0 | 1.0 | 0.17 | 0.03 | 0.03 | 79 | 1010.7 |
| 20260507043107 | 62 | 293 | 0.0 | 1.0 | 0.12 | 0.02 | 0.02 | 77 | 1011.1 |
| 20260507042602 | 62 | 218 | 0.0 | 1.0 | 0.00 | 0.00 | 0.00 | 74 | 1011.0 |
| 20260507042058 | 63 | 281 | 0.0 | 0.0 | 0.00 | 0.00 | 0.00 | 72 | 1011.1 |
| 20260507041555 | 63 | 258 | 1.0 | 1.0 | 0.00 | 0.00 | 0.00 | 72 | 1011.0 |
| 20260507041052 | 63 | 252 | 1.0 | 1.0 | 0.00 | 0.00 | 0.00 | 73 | 1010.8 |
| 20260507040549 | 63 | 259 | 2.0 | 4.0 | 0.00 | 0.00 | 0.00 | 74 | 1010.7 |
| 20260507040045 | 63 | 199 | 1.0 | 2.0 | 0.00 | 0.25 | 0.25 | 75 | 1010.5 |
| 20260507035541 | 63 | 288 | 0.0 | 0.0 | 0.00 | 0.25 | 0.25 | 76 | 1010.5 |
| 20260507035037 | 63 | 332 | 4.0 | 6.0 | 0.00 | 0.25 | 0.25 | 76 | 1010.4 |
| 20260507034534 | 63 | 237 | 2.0 | 2.0 | 0.00 | 0.25 | 0.25 | 78 | 1010.4 |
| 20260507034032 | 63 | 223 | 0.0 | 1.0 | 0.00 | 0.25 | 0.25 | 77 | 1010.5 |
| 20260507033530 | 64 | 267 | 1.0 | 1.0 | 0.00 | 0.25 | 0.25 | 76 | 1010.4 |
| 20260507033027 | 65 | 246 | 4.0 | 6.0 | 0.00 | 0.25 | 0.25 | 73 | 1010.5 |
| 20260507032524 | 65 | 260 | 0.0 | 1.0 | 0.00 | 0.25 | 0.25 | 70 | 1010.4 |
| 20260507032020 | 65 | 256 | 2.0 | 3.0 | 0.00 | 0.25 | 0.25 | 70 | 1010.5 |
| 20260507031516 | 65 | 253 | 0.0 | 1.0 | 0.00 | 0.25 | 0.25 | 70 | 1010.3 |
| 20260507031014 | 65 | 338 | 4.0 | 4.0 | 0.00 | 0.25 | 0.25 | 70 | 1009.9 |
| 20260507030510 | 65 | 276 | 2.0 | 4.0 | 0.00 | 0.25 | 0.25 | 69 | 1009.7 |
| 20260507030008 | 65 | 222 | 2.0 | 2.0 | 0.00 | 0.25 | 0.25 | 69 | 1009.7 |
| 20260507025505 | 65 | 252 | 0.0 | 0.0 | 0.00 | 0.25 | 0.25 | 70 | 1010.1 |
| 20260507025003 | 66 | 38 | 1.0 | 2.0 | 0.00 | 0.25 | 0.25 | 70 | 1010.0 |
| 20260507024500 | 66 | 341 | 1.0 | 3.0 | 0.00 | 0.25 | 0.25 | 72 | 1010.3 |
| 20260507023956 | 66 | 11 | 3.0 | 4.0 | 0.00 | 0.25 | 0.25 | 72 | 1010.0 |
| 20260507023452 | 66 | 355 | 4.0 | 6.0 | 0.00 | 0.25 | 0.25 | 72 | 1009.7 |
| 20260507022950 | 67 | 43 | 4.0 | 6.0 | 0.00 | 0.25 | 0.25 | 73 | 1009.7 |
| 20260507022447 | 67 | 326 | 2.0 | 2.0 | 0.00 | 0.25 | 0.25 | 73 | 1009.7 |
| 20260507021942 | 67 | 240 | 2.0 | 3.0 | 0.00 | 0.25 | 0.25 | 73 | 1009.8 |
| 20260507021437 | 68 | 246 | 3.0 | 3.0 | 0.00 | 0.25 | 0.25 | 74 | 1009.3 |
| 20260507020936 | 68 | 87 | 1.0 | 1.0 | 0.00 | 0.25 | 0.25 | 74 | 1009.4 |
| 20260507020432 | 68 | 257 | 0.0 | 1.0 | 0.00 | 0.25 | 0.25 | 74 | 1009.4 |
| 20260507015929 | 68 | 21 | 2.0 | 3.0 | 0.00 | 0.25 | 0.25 | 75 | 1009.3 |
| 20260507015427 | 68 | 233 | 1.0 | 1.0 | 0.00 | 0.25 | 0.25 | 74 | 1009.4 |
| 20260507014924 | 69 | 243 | 2.0 | 3.0 | 0.00 | 0.25 | 0.25 | 77 | 1009.4 |
| 20260507014420 | 69 | 252 | 1.0 | 2.0 | 0.00 | 0.25 | 0.25 | 77 | 1009.4 |
| 20260507013917 | 69 | 262 | 1.0 | 2.0 | 0.00 | 0.25 | 0.25 | 76 | 1009.4 |
| 20260507013414 | 69 | 251 | 0.0 | 1.0 | 0.00 | 0.25 | 0.25 | 76 | 1009.5 |
| 20260507012912 | 69 | 253 | 0.0 | 0.0 | 0.00 | 0.25 | 0.25 | 76 | 1009.6 |
| 20260507012408 | 69 | 274 | 2.0 | 3.0 | 0.00 | 0.25 | 0.25 | 75 | 1009.5 |
| 20260507011904 | 69 | 258 | 1.0 | 1.0 | 0.00 | 0.25 | 0.25 | 75 | 1009.5 |
| 20260507011401 | 70 | 265 | 1.0 | 2.0 | 0.00 | 0.25 | 0.25 | 75 | 1009.7 |
| 20260507010901 | 70 | 245 | 0.0 | 0.0 | 0.00 | 0.25 | 0.25 | 75 | 1009.3 |
| 20260507010357 | 70 | 267 | 0.0 | 0.0 | 0.00 | 0.25 | 0.25 | 75 | 1009.6 |
| 20260507005855 | 70 | 279 | 2.0 | 3.0 | 0.00 | 0.25 | 0.25 | 75 | 1009.7 |
| 20260507005351 | 69 | 261 | 1.0 | 1.0 | 0.00 | 0.25 | 0.25 | 75 | 1009.5 |
| 20260507004848 | 69 | 269 | 2.0 | 2.0 | 0.00 | 0.25 | 0.25 | 75 | 1009.4 |
| 20260507004345 | 69 | 250 | 1.0 | 1.0 | 0.00 | 0.25 | 0.25 | 75 | 1009.2 |
| 20260507003842 | 69 | 243 | 2.0 | 2.0 | 0.00 | 0.25 | 0.25 | 75 | 1009.4 |
| 20260507003337 | 69 | 254 | 0.0 | 0.0 | 0.00 | 0.25 | 0.25 | 75 | 1009.2 |
| 20260507002832 | 69 | 257 | 0.0 | 0.0 | 0.00 | 0.25 | 0.25 | 75 | 1009.3 |
| 20260507002329 | 69 | 246 | 0.0 | 0.0 | 0.00 | 0.25 | 0.25 | 75 | 1009.0 |
| 20260507001827 | 69 | 251 | 1.0 | 1.0 | 0.00 | 0.25 | 0.25 | 75 | 1009.0 |
| 20260507001323 | 69 | 262 | 0.0 | 0.0 | 0.00 | 0.25 | 0.25 | 75 | 1009.0 |
| 20260507000820 | 69 | 253 | 0.0 | 1.0 | 0.00 | 0.25 | 0.25 | 75 | 1009.3 |
| 20260507000315 | 70 | 262 | 0.0 | 1.0 | 0.00 | 0.25 | 0.25 | 75 | 1009.0 |
| 20260506235812 | 70 | 250 | 3.0 | 3.0 | 0.00 | 0.25 | 0.25 | 74 | 1009.3 |
| 20260506235308 | 70 | 252 | 0.0 | 1.0 | 0.00 | 0.25 | 0.25 | 74 | 1008.8 |
| 20260506234805 | 70 | 263 | 1.0 | 1.0 | 0.00 | 0.25 | 0.25 | 74 | 1009.1 |
| 20260506234303 | 70 | 257 | 2.0 | 2.0 | 0.00 | 0.25 | 0.25 | 74 | 1008.8 |
| 20260506233800 | 70 | 281 | 5.0 | 6.0 | 0.00 | 0.25 | 0.25 | 74 | 1008.8 |
| 20260506233256 | 70 | 267 | 2.0 | 3.0 | 0.00 | 0.25 | 0.25 | 73 | 1008.3 |
| 20260506232748 | 70 | 258 | 2.0 | 3.0 | 0.00 | 0.25 | 0.25 | 73 | 1008.7 |
| 20260506232248 | 70 | 253 | 2.0 | 3.0 | 0.00 | 0.25 | 0.25 | 73 | 1008.7 |
| 20260506231745 | 70 | 260 | 4.0 | 6.0 | 0.00 | 0.25 | 0.25 | 73 | 1008.5 |
| 20260506231243 | 70 | 242 | 3.0 | 3.0 | 0.00 | 0.25 | 0.25 | 73 | 1008.5 |
| 20260506230740 | 70 | 246 | 1.0 | 1.0 | 0.00 | 0.25 | 0.25 | 73 | 1008.6 |
| 20260506230237 | 70 | 272 | 4.0 | 6.0 | 0.00 | 0.25 | 0.25 | 72 | 1008.5 |
| 20260506225733 | 71 | 274 | 2.0 | 2.0 | 0.00 | 0.25 | 0.25 | 72 | 1008.5 |
| 20260506225231 | 70 | 239 | 2.0 | 2.0 | 0.00 | 0.25 | 0.25 | 73 | 1008.3 |
| 20260506224727 | 70 | 256 | 2.0 | 2.0 | 0.00 | 0.25 | 0.25 | 72 | 1008.6 |
| 20260506224224 | 70 | 247 | 6.0 | 7.0 | 0.00 | 0.25 | 0.25 | 72 | 1008.6 |
| 20260506223720 | 71 | 267 | 4.0 | 7.0 | 0.00 | 0.25 | 0.25 | 72 | 1008.4 |
| 20260506223216 | 71 | 221 | 3.0 | 4.0 | 0.00 | 0.25 | 0.25 | 71 | 1008.5 |
| 20260506222713 | 71 | 255 | 0.0 | 1.0 | 0.00 | 0.25 | 0.25 | 71 | 1008.2 |
| 20260506222208 | 71 | 259 | 2.0 | 3.0 | 0.00 | 0.25 | 0.25 | 70 | 1008.5 |
| 20260506221707 | 71 | 245 | 2.0 | 2.0 | 0.00 | 0.25 | 0.25 | 71 | 1008.2 |
| 20260506221204 | 71 | 196 | 1.0 | 2.0 | 0.00 | 0.25 | 0.25 | 70 | 1008.5 |
| 20260506220701 | 71 | 251 | 1.0 | 2.0 | 0.00 | 0.25 | 0.25 | 70 | 1008.4 |
| 20260506220156 | 72 | 251 | 3.0 | 3.0 | 0.00 | 0.25 | 0.25 | 70 | 1008.2 |
| 20260506215653 | 71 | 233 | 2.0 | 2.0 | 0.00 | 0.25 | 0.25 | 71 | 1008.3 |
| 20260506215148 | 71 | 273 | 4.0 | 7.0 | 0.00 | 0.25 | 0.25 | 71 | 1008.1 |
| 20260506214645 | 71 | 253 | 1.0 | 1.0 | 0.00 | 0.25 | 0.25 | 71 | 1008.3 |
| 20260506214143 | 71 | 200 | 0.0 | 1.0 | 0.00 | 0.25 | 0.25 | 71 | 1008.5 |
| 20260506213641 | 72 | 155 | 3.0 | 4.0 | 0.00 | 0.25 | 0.25 | 70 | 1008.4 |
| 20260506213138 | 72 | 283 | 4.0 | 6.0 | 0.00 | 0.25 | 0.25 | 70 | 1008.3 |
| 20260506212636 | 72 | 181 | 1.0 | 2.0 | 0.00 | 0.25 | 0.25 | 70 | 1008.3 |
| 20260506212130 | 72 | 210 | 2.0 | 2.0 | 0.00 | 0.25 | 0.25 | 70 | 1008.2 |
| 20260506211626 | 71 | 257 | 2.0 | 3.0 | 0.00 | 0.25 | 0.25 | 69 | 1008.2 |
| 20260506211123 | 72 | 268 | 4.0 | 8.0 | 0.00 | 0.25 | 0.25 | 68 | 1008.4 |
| 20260506210620 | 71 | 237 | 4.0 | 4.0 | 0.00 | 0.25 | 0.25 | 70 | 1007.9 |
| 20260506210116 | 71 | 290 | 4.0 | 8.0 | 0.00 | 0.25 | 0.25 | 70 | 1007.7 |
| 20260506205613 | 71 | 289 | 5.0 | 8.0 | 0.00 | 0.25 | 0.25 | 70 | 1007.9 |
| 20260506205108 | 71 | 261 | 6.0 | 8.0 | 0.00 | 0.25 | 0.25 | 70 | 1008.2 |
| 20260506204606 | 71 | 230 | 10.0 | 14.0 | 0.00 | 0.25 | 0.25 | 69 | 1008.0 |
| 20260506204103 | 72 | 283 | 7.0 | 8.0 | 0.00 | 0.25 | 0.25 | 69 | 1007.9 |
| 20260506203602 | 71 | 256 | 1.0 | 1.0 | 0.00 | 0.25 | 0.25 | 70 | 1007.8 |
| 20260506203058 | 71 | 242 | 5.0 | 6.0 | 0.00 | 0.25 | 0.25 | 69 | 1007.8 |
| 20260506202555 | 71 | 156 | 3.0 | 4.0 | 0.00 | 0.25 | 0.25 | 70 | 1008.0 |
| 20260506202052 | 71 | 245 | 1.0 | 2.0 | 0.00 | 0.25 | 0.25 | 71 | 1008.0 |
| 20260506201549 | 70 | 274 | 2.0 | 2.0 | 0.00 | 0.25 | 0.25 | 72 | 1007.9 |
| 20260506201046 | 71 | 204 | 7.0 | 9.0 | 0.00 | 0.25 | 0.25 | 71 | 1007.9 |
| 20260506200542 | 70 | 314 | 4.0 | 8.0 | 0.00 | 0.25 | 0.25 | 71 | 1008.3 |
| 20260506200039 | 70 | 230 | 6.0 | 9.0 | 0.00 | 0.25 | 0.25 | 73 | 1008.3 |
| 20260506195535 | 70 | 227 | 2.0 | 4.0 | 0.00 | 0.25 | 0.25 | 72 | 1008.2 |
| 20260506195032 | 69 | 262 | 4.0 | 4.0 | 0.00 | 0.25 | 0.25 | 73 | 1008.0 |
| 20260506194530 | 69 | 237 | 6.0 | 7.0 | 0.00 | 0.25 | 0.25 | 73 | 1008.2 |
| 20260506194026 | 69 | 177 | 6.0 | 10.0 | 0.00 | 0.25 | 0.25 | 73 | 1008.2 |
| 20260506193523 | 70 | 271 | 8.0 | 11.0 | 0.00 | 0.25 | 0.25 | 71 | 1008.1 |
| 20260506193020 | 70 | 240 | 3.0 | 4.0 | 0.00 | 0.25 | 0.25 | 72 | 1008.1 |
| 20260506192517 | 70 | 314 | 5.0 | 7.0 | 0.00 | 0.25 | 0.25 | 72 | 1008.5 |
| 20260506192013 | 70 | 275 | 3.0 | 3.0 | 0.00 | 0.25 | 0.25 | 72 | 1008.1 |
| 20260506191510 | 71 | 162 | 3.0 | 4.0 | 0.00 | 0.25 | 0.25 | 71 | 1008.2 |
| 20260506191006 | 71 | 245 | 5.0 | 11.0 | 0.00 | 0.25 | 0.25 | 71 | 1008.3 |
| 20260506190503 | 70 | 247 | 4.0 | 8.0 | 0.00 | 0.25 | 0.25 | 71 | 1008.4 |
| 20260506190000 | 70 | 233 | 4.0 | 8.0 | 0.00 | 0.25 | 0.25 | 71 | 1008.4 |
| 20260506185457 | 69 | 246 | 3.0 | 4.0 | 0.00 | 0.25 | 0.25 | 72 | 1008.4 |
| 20260506184954 | 69 | 237 | 2.0 | 3.0 | 0.00 | 0.25 | 0.25 | 73 | 1008.5 |
| 20260506184451 | 69 | 273 | 5.0 | 7.0 | 0.00 | 0.25 | 0.25 | 73 | 1008.6 |
| 20260506183948 | 69 | 250 | 4.0 | 6.0 | 0.00 | 0.25 | 0.25 | 73 | 1008.2 |
| 20260506183444 | 69 | 232 | 4.0 | 9.0 | 0.00 | 0.25 | 0.25 | 72 | 1008.6 |
| 20260506182941 | 69 | 257 | 1.0 | 2.0 | 0.00 | 0.25 | 0.25 | 73 | 1008.6 |
| 20260506182438 | 69 | 110 | 4.0 | 6.0 | 0.00 | 0.25 | 0.25 | 73 | 1008.9 |
| 20260506181935 | 68 | 232 | 5.0 | 7.0 | 0.00 | 0.25 | 0.25 | 74 | 1008.8 |
| 20260506181433 | 68 | 253 | 6.0 | 9.0 | 0.00 | 0.25 | 0.25 | 74 | 1008.7 |
| 20260506180930 | 68 | 236 | 8.0 | 10.0 | 0.00 | 0.25 | 0.25 | 73 | 1008.8 |
| 20260506180426 | 68 | 254 | 2.0 | 3.0 | 0.00 | 0.25 | 0.25 | 75 | 1009.0 |
| 20260506175923 | 68 | 237 | 8.0 | 9.0 | 0.00 | 0.25 | 0.25 | 75 | 1008.9 |
| 20260506175420 | 68 | 288 | 6.0 | 9.0 | 0.00 | 0.25 | 0.25 | 75 | 1009.2 |
| 20260506174917 | 67 | 259 | 7.0 | 9.0 | 0.00 | 0.25 | 0.25 | 76 | 1008.9 |
| 20260506174414 | 67 | 231 | 4.0 | 7.0 | 0.00 | 0.25 | 0.25 | 77 | 1009.1 |
| 20260506173911 | 67 | 254 | 6.0 | 10.0 | 0.00 | 0.25 | 0.25 | 77 | 1009.1 |
| 20260506173408 | 66 | 174 | 6.0 | 8.0 | 0.00 | 0.25 | 0.25 | 78 | 1009.2 |
| 20260506172905 | 66 | 239 | 7.0 | 9.0 | 0.00 | 0.25 | 0.25 | 79 | 1009.2 |
| 20260506172402 | 66 | 274 | 5.0 | 8.0 | 0.00 | 0.25 | 0.25 | 79 | 1009.2 |
| 20260506171859 | 66 | 219 | 3.0 | 4.0 | 0.00 | 0.25 | 0.25 | 80 | 1009.1 |
| 20260506171356 | 65 | 247 | 3.0 | 4.0 | 0.00 | 0.25 | 0.25 | 80 | 1009.2 |
| 20260506170854 | 66 | 282 | 6.0 | 9.0 | 0.00 | 0.25 | 0.25 | 80 | 1009.4 |
| 20260506170350 | 65 | 277 | 1.0 | 2.0 | 0.00 | 0.25 | 0.25 | 81 | 1009.5 |
| 20260506165849 | 65 | 158 | 3.0 | 8.0 | 0.00 | 0.25 | 0.25 | 81 | 1009.1 |
| 20260506165347 | 66 | 90 | 3.0 | 4.0 | 0.00 | 0.25 | 0.25 | 81 | 1009.4 |
| 20260506164843 | 65 | 211 | 3.0 | 4.0 | 0.00 | 0.25 | 0.25 | 82 | 1009.1 |
| 20260506164339 | 65 | 252 | 4.0 | 7.0 | 0.00 | 0.25 | 0.25 | 82 | 1009.2 |
| 20260506163837 | 65 | 138 | 7.0 | 13.0 | 0.00 | 0.25 | 0.25 | 83 | 1009.5 |
| 20260506163332 | 65 | 253 | 3.0 | 3.0 | 0.00 | 0.25 | 0.25 | 84 | 1009.4 |
| 20260506162827 | 64 | 146 | 3.0 | 4.0 | 0.00 | 0.25 | 0.25 | 85 | 1009.5 |
| 20260506162326 | 64 | 251 | 1.0 | 2.0 | 0.00 | 0.25 | 0.25 | 85 | 1009.4 |
| 20260506161823 | 64 | 264 | 5.0 | 6.0 | 0.00 | 0.25 | 0.25 | 85 | 1009.5 |
| 20260506161320 | 64 | 245 | 3.0 | 7.0 | 0.00 | 0.25 | 0.25 | 86 | 1009.5 |
| 20260506160817 | 64 | 198 | 7.0 | 11.0 | 0.00 | 0.25 | 0.25 | 86 | 1009.4 |
| 20260506160313 | 64 | 269 | 1.0 | 2.0 | 0.00 | 0.25 | 0.25 | 88 | 1009.4 |
| 20260506155813 | 63 | 240 | 7.0 | 8.0 | 0.00 | 0.25 | 0.25 | 88 | 1009.6 |
| 20260506155309 | 63 | 222 | 6.0 | 8.0 | 0.00 | 0.25 | 0.25 | 88 | 1009.6 |
| 20260506153421 | 62 | 169 | 4.0 | 4.0 | 0.00 | 0.25 | 0.25 | 90 | 1009.8 |
| 20260506152919 | 62 | 242 | 0.0 | 1.0 | 0.07 | 0.25 | 0.25 | 91 | 1009.9 |
| 20260506152415 | 62 | 271 | 2.0 | 7.0 | 0.12 | 0.25 | 0.25 | 90 | 1009.7 |
| 20260506151914 | 62 | 229 | 3.0 | 4.0 | 0.12 | 0.24 | 0.24 | 90 | 1009.8 |
| 20260506151411 | 62 | 222 | 10.0 | 13.0 | 0.12 | 0.23 | 0.23 | 90 | 1010.2 |
| 20260506150908 | 62 | 137 | 6.0 | 9.0 | 0.05 | 0.22 | 0.22 | 90 | 1010.0 |
| 20260506150404 | 62 | 246 | 3.0 | 6.0 | 0.00 | 0.21 | 0.21 | 90 | 1010.3 |
| 20260506145901 | 62 | 243 | 2.0 | 3.0 | 0.07 | 0.21 | 0.21 | 90 | 1010.5 |
| 20260506145357 | 62 | 220 | 2.0 | 2.0 | 0.07 | 0.21 | 0.21 | 89 | 1010.6 |
| 20260506144855 | 62 | 179 | 2.0 | 3.0 | 0.00 | 0.20 | 0.20 | 89 | 1010.5 |
| 20260506144351 | 62 | 228 | 4.0 | 6.0 | 0.07 | 0.20 | 0.20 | 89 | 1010.5 |
| 20260506143850 | 62 | 180 | 3.0 | 6.0 | 0.07 | 0.20 | 0.20 | 89 | 1010.4 |
| 20260506143347 | 62 | 229 | 2.0 | 6.0 | 0.05 | 0.19 | 0.19 | 89 | 1010.6 |
| 20260506142845 | 62 | 240 | 4.0 | 4.0 | 0.12 | 0.19 | 0.19 | 89 | 1010.5 |
| 20260506142342 | 62 | 170 | 2.0 | 3.0 | 0.12 | 0.18 | 0.18 | 89 | 1010.6 |
| 20260506141841 | 62 | 202 | 2.0 | 3.0 | 0.12 | 0.17 | 0.17 | 88 | 1010.5 |
| 20260506141338 | 62 | 211 | 4.0 | 6.0 | 0.19 | 0.16 | 0.16 | 88 | 1010.4 |
| 20260506140836 | 62 | 244 | 4.0 | 4.0 | 0.17 | 0.15 | 0.15 | 87 | 1010.6 |
| 20260506140333 | 62 | 187 | 4.0 | 6.0 | 0.17 | 0.13 | 0.13 | 87 | 1010.6 |
| 20260506135830 | 62 | 199 | 3.0 | 4.0 | 0.19 | 0.12 | 0.12 | 87 | 1010.4 |
| 20260506135326 | 62 | 258 | 1.0 | 1.0 | 0.12 | 0.10 | 0.10 | 86 | 1010.4 |
| 20260506134823 | 62 | 165 | 5.0 | 8.0 | 0.19 | 0.09 | 0.09 | 86 | 1010.6 |
| 20260506134319 | 62 | 216 | 3.0 | 4.0 | 0.19 | 0.08 | 0.08 | 85 | 1010.8 |
| 20260506133817 | 63 | 166 | 4.0 | 6.0 | 0.12 | 0.06 | 0.06 | 85 | 1010.7 |
| 20260506133313 | 63 | 108 | 1.0 | 2.0 | 0.19 | 0.05 | 0.05 | 84 | 1010.9 |
| 20260506132810 | 63 | 227 | 2.0 | 4.0 | 0.17 | 0.04 | 0.04 | 83 | 1010.9 |
| 20260506132307 | 64 | 243 | 3.0 | 4.0 | 0.05 | 0.02 | 0.02 | 81 | 1011.0 |
| 20260506131805 | 64 | 236 | 4.0 | 4.0 | 0.00 | 0.01 | 0.01 | 80 | 1010.9 |
| 20260506131301 | 64 | 264 | 3.0 | 4.0 | 0.00 | 0.01 | 0.01 | 79 | 1010.8 |
| 20260506130758 | 64 | 211 | 9.0 | 10.0 | 0.00 | 0.01 | 0.01 | 78 | 1010.8 |
| 20260506130254 | 64 | 259 | 2.0 | 3.0 | 0.00 | 0.01 | 0.01 | 79 | 1010.5 |
| 20260506125753 | 64 | 253 | 2.0 | 2.0 | 0.07 | 0.01 | 0.01 | 79 | 1010.3 |
| 20260506125250 | 64 | 253 | 2.0 | 3.0 | 0.07 | 0.01 | 0.01 | 78 | 1010.3 |
| 20260506124749 | 64 | 222 | 1.0 | 2.0 | 0.00 | 0.00 | 0.00 | 78 | 1010.1 |
| 20260506124246 | 64 | 226 | 1.0 | 3.0 | 0.00 | 0.00 | 0.00 | 79 | 1010.3 |
| 20260506123743 | 64 | 255 | 3.0 | 3.0 | 0.00 | 0.00 | 0.00 | 78 | 1010.0 |
| 20260506123242 | 65 | 226 | 2.0 | 8.0 | 0.00 | 0.00 | 0.00 | 77 | 1010.2 |
| 20260506122738 | 65 | 149 | 1.0 | 2.0 | 0.00 | 0.00 | 0.00 | 76 | 1010.4 |
| 20260506122235 | 65 | 273 | 2.0 | 2.0 | 0.00 | 0.00 | 0.00 | 75 | 1010.4 |
| 20260506121733 | 65 | 260 | 3.0 | 4.0 | 0.00 | 0.00 | 0.00 | 74 | 1010.4 |
| 20260506121230 | 65 | 246 | 3.0 | 4.0 | 0.00 | 0.00 | 0.00 | 73 | 1010.7 |
| 20260506120727 | 65 | 169 | 5.0 | 8.0 | 0.00 | 0.00 | 0.00 | 73 | 1010.8 |
| 20260506120225 | 66 | 248 | 2.0 | 4.0 | 0.00 | 0.00 | 0.00 | 72 | 1010.9 |
| 20260506115723 | 66 | 238 | 2.0 | 2.0 | 0.00 | 0.00 | 0.00 | 72 | 1010.7 |
| 20260506115221 | 66 | 224 | 6.0 | 8.0 | 0.00 | 0.00 | 0.00 | 72 | 1010.7 |
| 20260506114718 | 66 | 227 | 4.0 | 6.0 | 0.00 | 0.00 | 0.00 | 72 | 1010.6 |
| 20260506114216 | 66 | 173 | 4.0 | 6.0 | 0.00 | 0.00 | 0.00 | 72 | 1010.6 |
| 20260506113714 | 66 | 270 | 2.0 | 2.0 | 0.00 | 0.00 | 0.00 | 72 | 1010.4 |
| 20260506113211 | 66 | 71 | 1.0 | 2.0 | 0.00 | 0.00 | 0.00 | 71 | 1010.3 |
| 20260506112707 | 66 | 188 | 2.0 | 3.0 | 0.00 | 0.00 | 0.00 | 69 | 1010.2 |
| 20260506112205 | 66 | 278 | 5.0 | 9.0 | 0.00 | 0.00 | 0.00 | 69 | 1010.1 |
| 20260506111702 | 66 | 252 | 3.0 | 4.0 | 0.00 | 0.00 | 0.00 | 69 | 1009.9 |
| 20260506111200 | 66 | 228 | 5.0 | 9.0 | 0.00 | 0.00 | 0.00 | 68 | 1010.0 |